PWSweather.com
Personal Weather Stations
Station Observations
LEONMETEO
LeonES 24008

LeonES 24008

Lat: 42.6055559, Lon: -5.5752249

Elevation: 2690

Station Type: La Crosse WS3600

Latest ConditionsUpdated 1:37:44 AM GMT+01:01 Monday, Mar 27, 2017
Currently Today's Max Today's Min Today's Average
Temperature 46.9°F8.3°C 47.8°F8.8°C 46.9°F8.3°C 47.4°F8.6°C
Dew Point 39.0°F3.9°C 40.4°F4.7°C 39.0°F3.9°C 39.7°F4.3°C
Winds - N16091.8 kmh N Calm Calm - Calm Calm
Wind Gusts -- -- - -
Humidity 74% 76% 74% 74%
Pressure 29.60 in1002.4 mb 29.60 in1002.4 mb 29.59 in1002.0 mb -
Hour Temp Dew Point Humidity Winds Wind Gusts Pressure Precip Precip Rate Daily Precip Total
01:37 AM 46.9°F8.3°C 39.0°F3.9°C 74% - N16091.8 kmh N -- 29.60 in1002.4 mb 0.00 in0.0 mm 0.00 in0.0 mm 0.00 in0.0 mm
01:32 AM 47.1°F8.4°C 39.2°F4.0°C 74% - N16091.8 kmh N -- 29.60 in1002.4 mb 0.00 in0.0 mm 0.00 in0.0 mm 0.00 in0.0 mm
01:27 AM 47.1°F8.4°C 39.2°F4.0°C 74% - N16091.8 kmh N -- 29.60 in1002.4 mb 0.00 in0.0 mm 0.00 in0.0 mm 0.00 in0.0 mm
01:22 AM 47.1°F8.4°C 39.2°F4.0°C 74% - N16091.8 kmh N -- 29.60 in1002.4 mb 0.00 in0.0 mm 0.00 in0.0 mm 0.00 in0.0 mm
01:17 AM 47.3°F8.5°C 39.4°F4.1°C 74% - N16091.8 kmh N -- 29.60 in1002.4 mb 0.00 in0.0 mm 0.00 in0.0 mm 0.00 in0.0 mm
01:12 AM 47.3°F8.5°C 39.4°F4.1°C 74% - N16091.8 kmh N -- 29.59 in1002.0 mb 0.00 in0.0 mm 0.00 in0.0 mm 0.00 in0.0 mm
01:07 AM 47.4°F8.6°C 39.5°F4.2°C 74% - N16091.8 kmh N -- 29.59 in1002.0 mb 0.00 in0.0 mm 0.00 in0.0 mm 0.00 in0.0 mm
01:02 AM 47.4°F8.6°C 39.5°F4.2°C 74% - N16091.8 kmh N -- 29.59 in1002.0 mb 0.00 in0.0 mm 0.00 in0.0 mm 0.00 in0.0 mm
12:57 AM 47.4°F8.6°C 39.5°F4.2°C 74% - N16091.8 kmh N -- 29.59 in1002.0 mb 0.00 in0.0 mm 0.00 in0.0 mm 0.00 in0.0 mm
12:52 AM 47.4°F8.6°C 39.5°F4.2°C 74% - N16091.8 kmh N -- 29.60 in1002.4 mb 0.00 in0.0 mm 0.00 in0.0 mm 0.00 in0.0 mm
12:47 AM 47.6°F8.7°C 39.7°F4.3°C 74% - N16091.8 kmh N -- 29.59 in1002.0 mb 0.00 in0.0 mm 0.00 in0.0 mm 0.00 in0.0 mm
12:42 AM 47.8°F8.8°C 39.8°F4.3°C 74% - N16091.8 kmh N -- 29.59 in1002.0 mb 0.00 in0.0 mm 0.00 in0.0 mm 0.00 in0.0 mm
12:37 AM 47.8°F8.8°C 39.8°F4.3°C 74% - N16091.8 kmh N -- 29.60 in1002.4 mb 0.00 in0.0 mm 0.00 in0.0 mm 0.00 in0.0 mm
12:32 AM 47.8°F8.8°C 39.8°F4.3°C 74% - N16091.8 kmh N -- 29.60 in1002.4 mb 0.00 in0.0 mm 0.00 in0.0 mm 0.00 in0.0 mm
12:27 AM 47.8°F8.8°C 39.8°F4.3°C 74% - N16091.8 kmh N -- 29.60 in1002.4 mb 0.00 in0.0 mm 0.00 in0.0 mm 0.00 in0.0 mm
12:22 AM 47.8°F8.8°C 40.2°F4.6°C 75% - N16091.8 kmh N -- 29.60 in1002.4 mb 0.00 in0.0 mm 0.00 in0.0 mm 0.00 in0.0 mm
12:17 AM 47.4°F8.6°C 40.2°F4.6°C 75% - N16091.8 kmh N -- 29.60 in1002.4 mb 0.00 in0.0 mm 0.00 in0.0 mm 0.00 in0.0 mm
12:12 AM 47.4°F8.6°C 40.2°F4.6°C 75% - N16091.8 kmh N -- 29.60 in1002.4 mb 0.00 in0.0 mm 0.00 in0.0 mm 0.00 in0.0 mm
12:07 AM 47.4°F8.6°C 40.2°F4.6°C 76% - N16091.8 kmh N -- 29.60 in1002.4 mb 0.00 in0.0 mm 0.00 in0.0 mm 0.00 in0.0 mm
12:02 AM 47.3°F8.5°C 40.4°F4.7°C 76% - N16091.8 kmh N -- 29.60 in1002.4 mb 0.00 in0.0 mm 0.00 in0.0 mm 0.00 in0.0 mm